Weather History for Hebron, NE

Change the Weather History Date:

Thursday, September 26, 2013

  Actual Average Record
Temperature  
Mean Temperature 78 °F -  
Max Temperature 92 °F 76 °F 93 °F (1956)
Min Temperature 65 °F 47 °F 33 °F (1984)
Cooling Degree Days 14    
Growing Degree Days 28 (Base 50)    
Moisture  
Dew Point 55 °F    
Average Humidity 50    
Maximum Humidity 75    
Minimum Humidity 23    
Precipitation  
Precipitation 0.00 in - - ()
Sea Level Pressure  
Sea Level Pressure 29.72 in    
Wind  
Wind Speed 17 mph (SSE)    
Max Wind Speed 25 mph    
Max Gust Speed 36 mph    
Visibility 10 miles    
Events      
Averages and records for this station are not official NWS values.
T = Trace of Precipitation, MM = Missing Value Source: NWS Daily Summary

Daily Weather History Graph

Daily Weather History Graph

Search for Another Location

Airport:

Trip Planner

Search our weather history database for the weather conditions in past years. The results will help you decide how hot, cold, wet, or windy it might be!

Date:

Astronomy

Sep. 26, 2013 Rise Set
Actual Time 7:22 AM CDT 7:20 PM CDT
Civil Twilight 6:55 AM CDT 7:47 PM CDT
Nautical Twilight 6:23 AM CDT 8:18 PM CDT
Astronomical Twilight 5:51 AM CDT 8:50 PM CDT
Moon No Moon Rise 2:15 PM CDT (9/26)
Length of Visible Light 12h 52m
Length of Day
11h 58m
Waning Gibbous, 54% of the Moon is Illuminated
Sep 26
Waning Gibbous
Sep 26
Last Quarter
Oct 4
New
Oct 11
First Quarter
Oct 18
Full

Hourly Weather History & Observations

Time (CDT) Temp. Heat Index Dew Point Humidity Pressure Visibility Wind Dir Wind Speed Gust Speed Precip Events Conditions
12:15 AM 68.2 °F - 56.7 °F 67% 29.74 in 10.0 mi SE 13.8 mph - N/A   Clear
12:35 AM 68.0 °F - 56.7 °F 67% 29.73 in 10.0 mi SSE 15.0 mph 18.4 mph N/A   Clear
12:55 AM 67.5 °F - 56.7 °F 68% 29.73 in 10.0 mi SE 12.7 mph - N/A   Clear
1:15 AM 67.1 °F - 56.7 °F 69% 29.73 in 10.0 mi SE 13.8 mph - N/A   Clear
1:35 AM 66.2 °F - 56.8 °F 72% 29.73 in 10.0 mi SSE 12.7 mph - N/A   Clear
1:55 AM 65.8 °F - 57.2 °F 74% 29.73 in 10.0 mi SSE 11.5 mph - N/A   Clear
2:15 AM 66.0 °F - 57.2 °F 73% 29.73 in 10.0 mi SSE 13.8 mph 19.6 mph N/A   Clear
2:35 AM 65.7 °F - 57.2 °F 74% 29.73 in 10.0 mi SE 15.0 mph 19.6 mph N/A   Clear
2:55 AM 65.5 °F - 57.2 °F 75% 29.73 in 10.0 mi SSE 13.8 mph 18.4 mph N/A   Clear
3:15 AM 65.7 °F - 57.2 °F 74% 29.73 in 10.0 mi SSE 13.8 mph 20.7 mph N/A   Clear
3:35 AM 65.3 °F - 57.2 °F 75% 29.73 in 10.0 mi SSE 11.5 mph 20.7 mph N/A   Clear
3:55 AM 65.3 °F - 57.2 °F 75% 29.73 in 10.0 mi SSE 11.5 mph - N/A   Clear
4:15 AM 65.3 °F - 57.2 °F 75% 29.73 in 10.0 mi SSE 13.8 mph 19.6 mph N/A   Clear
4:35 AM 66.2 °F - 57.0 °F 72% 29.73 in 10.0 mi SSE 13.8 mph 23.0 mph N/A   Clear
4:55 AM 66.2 °F - 57.0 °F 72% 29.73 in 10.0 mi SSE 16.1 mph 20.7 mph N/A   Clear
5:15 AM 66.2 °F - 56.8 °F 72% 29.73 in 10.0 mi SSE 12.7 mph 23.0 mph N/A   Clear
5:35 AM 65.8 °F - 56.8 °F 73% 29.72 in 10.0 mi SE 16.1 mph 21.9 mph N/A   Clear
5:55 AM 66.2 °F - 56.7 °F 71% 29.71 in 10.0 mi SSE 17.3 mph 21.9 mph N/A   Clear
6:15 AM 66.6 °F - 56.3 °F 69% 29.72 in 10.0 mi SSE 16.1 mph 24.2 mph N/A   Clear
6:35 AM 66.4 °F - 56.3 °F 70% 29.72 in 10.0 mi SSE 15.0 mph 23.0 mph N/A   Clear
6:55 AM 66.2 °F - 56.3 °F 70% 29.72 in 10.0 mi SSE 18.4 mph - N/A   Clear
7:15 AM 66.0 °F - 56.3 °F 71% 29.72 in 10.0 mi SSE 18.4 mph 27.6 mph N/A   Clear
7:35 AM 66.4 °F - 55.9 °F 69% 29.73 in 10.0 mi SSE 17.3 mph 26.5 mph N/A   Clear
7:55 AM 67.1 °F - 55.8 °F 67% 29.73 in 10.0 mi SSE 18.4 mph 24.2 mph N/A   Clear
8:15 AM 68.2 °F - 55.4 °F 64% 29.73 in 10.0 mi SSE 18.4 mph 28.8 mph N/A   Clear
8:35 AM 69.1 °F - 55.2 °F 61% 29.73 in 10.0 mi SSE 24.2 mph 32.2 mph N/A   Clear
8:55 AM 70.7 °F - 54.7 °F 57% 29.73 in 10.0 mi SSE 20.7 mph 28.8 mph N/A   Clear
9:15 AM 71.8 °F - 54.5 °F 54% 29.73 in 10.0 mi SSE 20.7 mph 29.9 mph N/A   Clear
9:35 AM 73.0 °F - 54.5 °F 52% 29.73 in 10.0 mi SSE 23.0 mph 29.9 mph N/A   Clear
9:55 AM 74.5 °F - 54.5 °F 50% 29.73 in 10.0 mi SSE 23.0 mph 29.9 mph N/A   Clear
10:15 AM 76.3 °F - 54.3 °F 46% 29.73 in 10.0 mi SSE 25.3 mph 31.1 mph N/A   Clear
10:35 AM 77.2 °F - 53.8 °F 44% 29.73 in 10.0 mi SSE 21.9 mph 31.1 mph N/A   Clear
10:55 AM 79.0 °F - 54.1 °F 42% 29.74 in 10.0 mi South 19.6 mph 31.1 mph N/A   Clear
11:15 AM 81.1 °F 80.7 °F 54.0 °F 39% 29.73 in 10.0 mi South 18.4 mph 28.8 mph N/A   Clear
11:35 AM 81.9 °F 81.0 °F 53.1 °F 37% 29.74 in 10.0 mi South 19.6 mph 29.9 mph N/A   Clear
11:55 AM 82.9 °F - 52.5 °F 35% 29.74 in 10.0 mi South 20.7 mph 27.6 mph N/A   Clear
12:15 PM 84.6 °F - 52.5 °F 33% 29.74 in 10.0 mi South 20.7 mph 26.5 mph N/A   Clear
12:35 PM 85.8 °F - 52.2 °F 31% 29.73 in 10.0 mi South 20.7 mph 25.3 mph N/A   Clear
12:55 PM 86.7 °F - 52.3 °F 31% 29.73 in 10.0 mi South 19.6 mph 28.8 mph N/A   Clear
1:15 PM 87.8 °F - 51.4 °F 29% 29.72 in 10.0 mi South 21.9 mph 28.8 mph N/A   Clear
1:35 PM 88.9 °F - 51.6 °F 28% 29.71 in 10.0 mi SSE 21.9 mph 32.2 mph N/A   Clear
1:55 PM 89.8 °F - 50.9 °F 26% 29.71 in 10.0 mi South 23.0 mph 28.8 mph N/A   Clear
2:15 PM 90.9 °F - 50.4 °F 25% 29.70 in 10.0 mi South 21.9 mph 31.1 mph N/A   Clear
2:35 PM 91.6 °F - 49.5 °F 24% 29.69 in 10.0 mi SSE 21.9 mph 32.2 mph N/A   Clear
2:55 PM 91.8 °F - 49.5 °F 23% 29.69 in 10.0 mi South 21.9 mph 32.2 mph N/A   Clear
3:15 PM 91.9 °F - 49.1 °F 23% 29.69 in 10.0 mi South 21.9 mph 35.7 mph N/A   Clear
3:35 PM 92.1 °F - 49.5 °F 23% 29.69 in 10.0 mi South 15.0 mph 32.2 mph N/A   Clear
3:55 PM 92.3 °F - 49.1 °F 23% 29.69 in 10.0 mi SSE 16.1 mph 32.2 mph N/A   Clear
4:15 PM 92.3 °F - 49.8 °F 23% 29.69 in 10.0 mi SSE 19.6 mph 29.9 mph N/A   Clear
4:35 PM 92.1 °F - 50.0 °F 24% 29.68 in 10.0 mi SSE 20.7 mph 31.1 mph N/A   Clear
4:55 PM 91.8 °F - 50.7 °F 25% 29.69 in 10.0 mi SSE 23.0 mph 31.1 mph N/A   Clear
5:15 PM 91.4 °F - 50.9 °F 25% 29.69 in 10.0 mi SSE 20.7 mph 28.8 mph N/A   Clear
5:35 PM 90.9 °F - 50.5 °F 25% 29.69 in 10.0 mi SSE 21.9 mph 29.9 mph N/A   Clear
5:55 PM 90.0 °F - 50.9 °F 26% 29.69 in 10.0 mi SSE 20.7 mph 31.1 mph N/A   Clear
6:15 PM 89.2 °F - 51.8 °F 28% 29.70 in 10.0 mi SSE 20.7 mph 28.8 mph N/A   Clear
6:35 PM 88.2 °F - 52.9 °F 30% 29.70 in 10.0 mi SSE 16.1 mph 26.5 mph N/A   Clear
6:55 PM 85.6 °F 84.5 °F 56.5 °F 37% 29.71 in 10.0 mi SSE 16.1 mph 21.9 mph N/A   Clear
7:15 PM 83.8 °F 83.3 °F 57.6 °F 41% 29.71 in 10.0 mi SSE 12.7 mph 18.4 mph N/A   Clear
7:35 PM 82.4 °F 82.3 °F 58.3 °F 44% 29.71 in 10.0 mi SE 12.7 mph - N/A   Clear
7:55 PM 81.9 °F 81.9 °F 58.6 °F 45% 29.72 in 10.0 mi SSE 16.1 mph 19.6 mph N/A   Clear
8:15 PM 81.5 °F 81.7 °F 59.0 °F 46% 29.72 in 10.0 mi SSE 18.4 mph 23.0 mph N/A   Clear
8:35 PM 81.1 °F 81.5 °F 59.2 °F 47% 29.73 in 10.0 mi SSE 13.8 mph 25.3 mph N/A   Clear
8:55 PM 80.1 °F 80.9 °F 59.9 °F 50% 29.74 in 10.0 mi SE 15.0 mph 25.3 mph N/A   Clear
9:15 PM 79.7 °F - 59.9 °F 51% 29.74 in 10.0 mi SSE 17.3 mph 27.6 mph N/A   Clear
9:35 PM 79.3 °F - 59.9 °F 51% 29.75 in 10.0 mi SSE 21.9 mph 27.6 mph N/A   Clear
9:55 PM 79.0 °F - 59.9 °F 52% 29.75 in 10.0 mi SSE 19.6 mph 27.6 mph N/A   Clear
10:15 PM 78.8 °F - 59.9 °F 52% 29.75 in 10.0 mi SSE 21.9 mph 27.6 mph N/A   Clear
10:35 PM 78.1 °F - 59.5 °F 53% 29.76 in 10.0 mi SSE 18.4 mph 27.6 mph N/A   Clear
10:55 PM 77.5 °F - 59.7 °F 54% 29.76 in 10.0 mi SSE 17.3 mph 23.0 mph N/A   Clear
11:15 PM 77.5 °F - 59.5 °F 54% 29.76 in 10.0 mi SSE 20.7 mph 27.6 mph N/A   Clear
11:35 PM 77.2 °F - 59.7 °F 55% 29.76 in 10.0 mi SSE 19.6 mph 27.6 mph N/A   Clear
11:55 PM 77.0 °F - 59.4 °F 54% 29.77 in 10.0 mi SSE 16.1 mph 27.6 mph N/A   Clear